Location: Arrington
(35.8681°N, 86.7092°W)
Time: 12:45:41
(UTC+00:00)

NOSS 3-2 (A) - Pass Details

Date: 23 November 2019
Orbit: 815 x 1393 km, 63.4° (Epoch: 25 November)

Event Time Altitude Azimuth Distance (km) Brightness Sun altitude
Rises 00:38:17 0° 333° (NNW) 4,019 7.0 -24.6°
Reaches altitude 10° 00:41:02 10° 339° (NNW) 3,136 6.3 -25.1°
Enters shadow 00:48:24 47° 52° (NE) 1,667 4.3 -26.6°
